Location: L�gten
(56.2746°N, 10.3118°E)
Time: 00:45:19
(UTC+00:00)

Daily predictions for brighter satellites

Satellite Brightness Start Highest point End
(mag) Time Altitude Azimuth Time Altitude Azimuth Time Altitude Azimuth
Cosmos 1536 Rocket 3.9 00:04:22 10° N 00:08:41 59° ENE 00:11:19 22° SSE
Cosmos 2219 Rocket 2.7 00:03:20 10° NW 00:08:41 43° WSW 00:11:13 27° SSW
Cosmos 2082 Rocket 4.4 00:05:37 10° WNW 00:10:11 24° NNW 00:14:45 10° NNE
Cosmos 1437 2.9 00:07:36 10° N 00:10:34 60° ENE 00:11:26 39° SE
Cosmos 1464 Rocket 4.0 00:08:47 26° S 00:12:34 89° W 00:18:49 10° NNE
Lacrosse 4 Rocket 1.4 00:13:01 33° SSW 00:14:50 73° SE 00:19:02 10° NE
Cosmos 1782 Rocket 3.5 00:12:54 32° SSW 00:14:51 76° WNW 00:19:13 10° N
Cosmos 2322 Rocket 4.4 00:15:10 10° W 00:15:39 10° W 00:16:07 10° W
FALCON 9 DEB 3.3 00:15:50 38° SW 00:16:45 49° S 00:20:08 10° ESE
Landsat 4 3.9 00:14:46 10° NNE 00:18:34 65° WNW 00:20:07 33° SW
IRAS Rocket 4.4 00:14:44 15° SSE 00:19:22 72° ENE 00:24:58 10° NNW
Cosmos 1354 Rocket 4.1 00:16:38 28° S 00:19:28 68° ESE 00:24:47 10° NNE
SL-16 R/B 2.9 00:14:52 10° NNW 00:20:30 55° NE 00:26:06 10° SE
SL-4 R/B 3.0 00:22:19 22° SE 00:22:19 22° SE 00:23:52 10° ESE
Cosmos 968 Rocket 3.5 00:19:13 26° SW 00:22:08 80° WNW 00:27:19 10° NNE
Cosmos 1908 Rocket 4.4 00:21:10 23° SW 00:23:26 41° WNW 00:27:36 10° N
COSMOS 2428 3.4 00:21:31 10° NW 00:26:43 37° WSW 00:29:12 25° SSW
Nadezhda 4 Rocket 4.1 00:25:10 10° NNW 00:31:25 63° W 00:35:18 24° SSW
Cosmos 2360 Rocket 4.1 00:28:54 10° WNW 00:31:38 14° W 00:33:24 12° WSW
Cosmos 1680 Rocket 4.4 00:28:55 10° NNW 00:34:02 48° NE 00:39:05 10° SE
SL-16 R/B 2.6 00:28:37 14° SSE 00:34:03 84° ENE 00:40:22 10° NNW
CZ-2D R/B 3.1 00:28:59 10° NNE 00:34:09 40° E 00:38:05 16° SSE
BREEZE-M TANK 4.4 00:36:08 14° SE 00:36:08 14° SE 00:37:13 10° SE
CENTAUR R/B 3.3 00:29:23 10° WSW 00:35:55 62° NNW 00:43:41 10° ENE
Cosmos 1607 4.1 00:30:10 10° NW 00:36:37 85° NE 00:43:08 10° SE
USA 267 3.2 00:32:05 10° ESE 00:38:39 83° SSW 00:45:14 10° WNW
Cosmos 2034 Rocket 4.0 00:35:41 24° SSW 00:39:43 81° WNW 00:46:05 10° N
GEOS 3 Rocket 4.1 00:34:27 10° NE 00:39:43 49° SE 00:42:46 24° SSW
KORONAS-FOTON 4.2 00:37:26 10° N 00:41:12 60° ENE 00:43:45 19° SSE
ADEOS II 4.0 00:38:17 10° NE 00:42:25 23° E 00:46:32 10° SE
Cosmos 1092 Rocket 4.0 00:37:17 10° NNW 00:43:35 76° W 00:48:01 20° S
Cosmos 1975 Rocket 4.4 00:39:59 10° NNW 00:43:48 28° W 00:45:36 21° SW
Okean 2 Rocket 3.1 00:41:46 28° S 00:44:09 90° W 00:48:41 10° NNE
PSLV R/B 4.3 00:41:14 10° N 00:45:39 48° WNW 00:48:26 22° SW
Cosmos 1980 3.9 00:40:27 10° NW 00:45:59 54° WSW 00:49:51 19° S
Cosmos 2333 Rocket 3.5 00:41:39 10° NW 00:46:09 24° WSW 00:48:11 20° SW
Helios 1B rocket 2.7 00:42:40 10° N 00:46:43 58° WNW 00:48:49 26° SW
Cosmos 1975 3.9 00:45:31 21° WSW 00:47:31 35° WNW 00:51:15 10° N
Cosmos 2297 Rocket 3.1 00:45:36 18° SSE 00:49:12 38° ESE 00:54:23 10° NE
Cosmos 2219 3.9 00:45:50 20° S 00:49:21 43° ESE 00:54:38 10° NE
COSMOS 2487 4.2 00:48:08 14° W 00:50:19 24° NW 00:53:14 10° N
Meteor 1-29 3.0 00:47:16 10° NNE 00:50:44 71° WNW 00:52:12 32° SSW
Sich 1 Rocket 3.9 00:48:43 26° SW 00:51:03 55° WNW 00:55:23 10° N
Cosmos 1777 Rocket 4.5 00:49:00 22° S 00:52:17 54° ESE 00:57:28 10° NE
Cosmos 44 Rocket 4.3 00:49:24 10° WNW 00:53:37 28° WSW 00:55:08 24° SSW
UNK 3.7 00:52:23 20° S 00:55:37 78° WSW 01:00:21 10° NNW
Cosmos 2237 Rocket 2.4 00:50:33 10° NW 00:56:00 49° WSW 00:59:51 19° S
Cosmos 1300 Rocket 3.6 00:57:53 26° SSW 01:00:16 70° WNW 01:04:35 10° N
Cosmos 1503 Rocket 4.3 00:56:39 20° SW 01:00:20 64° WNW 01:05:42 10° NNE
Cosmos 1626 3.1 00:57:09 10° N 01:00:45 45° ENE 01:04:20 10° SE
NOSS 3-2 (C) 4.4 00:55:16 10° W 01:01:25 53° NNW 01:08:36 10° ENE
Cosmos 2084 Rocket 4.3 00:57:50 10° W 01:02:00 48° NNW 01:06:17 10° NE
DELTA 2 DEB (DPAF) 4.4 01:00:27 24° S 01:02:57 53° WSW 01:07:20 10° NNW
Okean 1 Rocket 3.6 01:01:02 18° SSE 01:04:01 54° E 01:08:17 10° NNE
Cosmos 923 Rocket 4.0 00:58:51 10° NNW 01:04:14 88° ENE 01:09:34 10° SSE
CZ-4C R/B 3.0 01:04:19 26° S 01:06:05 64° WSW 01:09:38 10° NNW
Cosmos 2098 Rocket 4.3 01:06:21 10° N 01:10:34 45° ENE 01:15:51 10° SE
Cosmos 158 Rocket 4.1 01:07:11 10° NNW 01:12:34 82° ENE 01:17:59 10° SSE
SL-08 R/B 4.4 01:08:00 10° SE 01:12:45 48° ENE 01:17:30 10° N
IKONOS-2 4.5 01:10:35 19° S 01:13:35 69° WSW 01:17:50 10° NNW
Cosmos 2151 Rocket 3.7 01:12:29 23° SSW 01:15:11 66° WNW 01:19:36 10° N
Cosmos 1707 4.2 01:12:27 10° NW 01:15:38 24° W 01:17:05 19° WSW
Timation 2 Rocket 3.9 01:14:34 19° SSW 01:19:06 82° ESE 01:25:09 10° NE
SL-14 R/B 3.4 01:20:29 10° N 01:24:27 73° ENE 01:28:21 10° SSE
DNEPR-1 R/B 4.4 01:19:45 10° NW 01:25:32 45° WSW 01:30:18 10° SSE
ERBS 3.1 01:23:41 10° W 01:26:34 28° SW 01:29:26 10° SSE
Cosmos 1805 3.3 01:24:26 19° S 01:27:09 75° E 01:31:03 10° NNE
Cosmos 1943 4.3 01:21:50 10° NNW 01:27:18 48° NE 01:32:44 10° ESE
Meteor 1-15 Rocket 4.2 01:22:53 17° SSW 01:27:19 88° E 01:32:57 10° NNE
SJ 16-02 2.6 01:25:10 12° SSE 01:28:49 35° ESE 01:32:52 10° NE
Cosmos 1025 Rocket 4.5 01:30:49 10° NW 01:34:08 22° W 01:36:08 16° WSW
Resurs 1-4 Rocket 2.1 01:29:52 10° NNE 01:35:11 80° WNW 01:39:24 16° SSW
Cosmos 1674 3.4 01:34:19 10° NNW 01:37:44 35° W 01:39:48 19° SSW
Cosmos 2227 Rocket 2.4 01:33:34 16° SSW 01:38:03 66° ESE 01:43:43 10° NE
Cosmos 1455 Rocket 4.2 01:34:56 10° SSE 01:39:04 41° E 01:43:15 10° NNE
Cosmos 1892 Rocket 3.6 01:36:47 10° NNW 01:41:18 85° W 01:45:45 10° S
Cosmos 1733 3.2 01:42:54 16° S 01:45:56 83° E 01:49:48 10° NNE
USA 215 4.0 01:40:03 10° ENE 01:46:09 40° SE 01:51:29 13° SSW
Cosmos 724 4.4 01:42:53 10° NW 01:48:53 89° SW 01:54:59 10° SE
ATLAS 3B R/B 3.3 01:42:38 10° W 01:49:07 55° NNW 01:55:46 10° ENE
Cosmos 2279 Rocket 4.0 01:44:46 13° SSW 01:50:21 82° WNW 01:56:37 10° N
COBE Rocket 3.9 01:47:33 11° S 01:51:52 54° W 01:56:27 10° NNW
FALCON 9 DEB 3.9 01:50:16 10° W 01:53:25 31° SSW 01:56:33 10° SE
Lacrosse 4 Rocket 3.0 01:50:06 10° W 01:53:53 30° NNW 01:57:36 10° NNE
Cosmos 1634 Rocket 4.3 01:50:26 15° SW 01:55:39 54° WNW 02:01:47 10° N
Cosmos 2112 Rocket 4.1 01:53:16 10° NW 01:58:27 57° WSW 02:03:31 10° S
Cosmos 2082 4.1 01:53:30 12° SSW 01:58:38 58° ESE 02:04:09 10° NE
Cosmos 1340 Rocket 4.0 01:55:16 10° SSE 01:58:59 39° E 02:02:42 10° NNE
SL-4 R/B 2.9 01:58:02 14° WSW 01:59:38 19° SSW 02:02:06 10° SSE
Meteor 1-24 Rocket 3.9 01:57:44 10° NNW 02:03:07 53° W 02:08:20 10° S
CBERS-1 4.1 01:58:53 10° NNE 02:04:04 88° ESE 02:09:09 10° SSW
ERS-2 3.8 02:01:02 10° SE 02:04:24 37° ENE 02:07:49 10° N
SL-16 R/B 2.7 01:59:14 10° NW 02:04:33 41° WSW 02:09:49 10° S
Cosmos 1953 4.3 02:02:03 10° SSE 02:05:29 28° E 02:08:58 10° NNE
Meteor 2-5 Rocket 4.3 02:01:26 10° NNW 02:06:44 41° W 02:11:54 10° SSW
Cosmos 1726 3.9 02:06:16 10° SSE 02:09:30 30° E 02:12:45 10° NNE
ARIANE 5 R/B 3.1 02:06:19 10° NNE 02:11:29 57° ESE 02:16:37 10° S
NPP 4.0 02:08:05 10° N 02:13:21 53° WNW 02:18:22 11° SW
IDEFIX/ARIANE 42P 3.6 02:09:19 10° NNE 02:14:18 43° E 02:19:15 10° S
CZ-2D R/B 2.7 02:09:05 10° N 02:14:20 47° WNW 02:19:24 11° SW
Cosmos 1680 Rocket 4.0 02:11:15 10° NW 02:16:06 39° WSW 02:20:54 10° S
H-2A R/B 2.5 02:12:16 10° SSE 02:16:19 61° ENE 02:20:23 10° N
Cosmos 1898 Rocket 4.0 02:12:13 10° S 02:17:21 58° ESE 02:22:29 10° NE
GEOS 3 Rocket 4.1 02:12:33 10° NE 02:17:54 63° NNW 02:23:13 10° WSW
SL-16 R/B 3.7 02:13:42 11° SW 02:18:25 25° W 02:23:30 10° NW
AQUA 4.3 02:15:19 10° N 02:19:56 50° WNW 02:24:26 10° SW
USA 267 3.5 02:15:56 10° SE 02:22:10 46° SW 02:28:26 10° WNW
ADEOS II 2.1 02:17:26 10° NNE 02:22:43 77° WNW 02:27:58 10° SSW
NOSS 3-1 (C) 4.4 02:18:04 10° S 02:23:14 40° ESE 02:29:15 10° ENE
Cosmos 1544 Rocket 3.8 02:21:02 10° S 02:25:29 76° E 02:30:00 10° NNE
IRS-1D 3.7 02:21:35 10° NNE 02:26:33 64° WNW 02:31:35 10° SSW
CENTAUR R/B 3.9 02:20:56 10° WNW 02:27:49 50° N 02:35:48 10° E
CZ-4C R/B 3.2 02:25:42 10° SSE 02:28:56 69° ENE 02:32:15 10° N
Cosmos 990 Rocket 4.2 02:23:50 10° SSW 02:29:00 73° ESE 02:34:11 10° NNE
Okean 1-7 Rocket 4.1 02:25:37 10° NNW 02:29:46 41° W 02:33:55 10° SSW
Cosmos 1766 4.2 02:26:32 11° SW 02:30:00 33° WNW 02:33:35 10° N
Cosmos 2263 Rocket 3.7 02:26:41 10° S 02:31:35 32° ESE 02:36:28 10° NE
Cosmos 1703 4.3 02:28:02 10° N 02:31:57 51° ENE 02:35:49 10° SSE
IRS-1C 4.2 02:26:56 10° NNE 02:32:19 86° WNW 02:37:40 10° SSW
CZ-4B R/B 4.0 02:29:52 10° ESE 02:32:36 25° ENE 02:35:17 10° N
Meteor 1-22 Rocket 4.3 02:27:28 10° SSW 02:32:41 61° WNW 02:38:00 10° N
Cosmos 2297 Rocket 2.6 02:27:31 10° SW 02:33:06 58° NW 02:38:42 10° NNE
Cosmos 2219 3.7 02:27:58 10° WSW 02:33:28 52° NW 02:38:59 10° NNE
Cosmos 1626 3.6 02:32:54 10° NW 02:35:46 21° W 02:38:38 10° SW
Cosmos 2266 Rocket 4.4 02:30:21 10° NNW 02:36:28 49° W 02:42:29 10° SSW
Uosat 12 SS-18 rocket 4.3 02:33:53 10° WSW 02:38:41 71° NW 02:43:03 10° NE
Cosmos 2237 Rocket 4.1 02:37:46 10° W 02:38:44 10° W 02:39:43 10° WSW
Cosmos 1602 Rocket 3.5 02:34:51 10° NNW 02:39:16 80° W 02:43:37 10° S
CZ-4B R/B 3.9 02:35:14 10° N 02:39:49 45° WNW 02:44:20 10° SW
Meteor 1-28 Rocket 3.9 02:37:41 10° SSW 02:41:13 36° W 02:44:46 10° NNW
Okean 1 Rocket 4.5 02:38:39 10° WSW 02:42:15 25° WNW 02:45:53 10° N
CZ-2C R/B 4.3 02:38:34 10° NE 02:42:25 26° E 02:46:17 10° SSE
Cosmos 1603 3.8 02:38:34 10° NW 02:44:16 62° WSW 02:49:53 10° SSE
Meteor 2-21 Rocket 4.5 02:39:08 10° NNW 02:45:13 82° W 02:51:17 10° S
Cosmos 1470 2.9 02:42:29 10° SSW 02:46:25 61° WNW 02:50:23 10° N
SL-08 R/B 4.1 02:46:11 10° SSW 02:50:42 35° W 02:55:16 10° NNW
